0 OSCAR 7 1 07530U 74089B 20357.50224546 -.00000023 00000-0 14247-3 0 9995 2 07530 101.8297 326.3765 0012363 3.4455 107.6536 12.53646602109556 0 OSCAR 8 1 10703U 78026B 20357.47396249 .00000292 00000-0 23162-3 0 9995 2 10703 99.0741 309.8498 0007893 36.3181 71.8905 13.99277334183946 0 RADIO 3 1 12997U 81120A 20357.83743793 .00000000 00000-0 -10112-3 0 9990 2 12997 82.9596 295.1683 0058697 138.3217 275.7499 12.15826208731619 0 RADIO 8 1 12998U 81120B 20357.80313365 -.00000077 00000-0 -10290-2 0 9997 2 12998 82.9579 125.1283 0018542 255.0063 257.3063 12.03159604713596 0 RADIO 5 1 12999U 81120C 20357.33920446 .00000123 00000-0 13203-2 0 9997 2 12999 82.9601 94.2817 0015400 106.9198 316.4430 12.05269086716298 0 RADIO 4 1 13000U 81120D 20358.16176635 .00000009 00000-0 -60618-6 0 9996 2 13000 82.9630 71.8673 0017614 334.7143 84.3136 12.06883303718937 0 RADIO 7 1 13001U 81120E 20357.22415663 -.00000112 00000-0 -13453-2 0 9997 2 13001 82.9606 39.6053 0024038 186.9576 234.8991 12.08907147721413 0 RADIO 6 1 13002U 81120F 20357.45461263 -.00000014 00000-0 -23912-3 0 9993 2 13002 82.9596 326.3402 0050495 267.5114 211.4504 12.13802357728484 0 OSCAR 10 1 14129U 83058B 20353.34181840 .00000410 00000-0 00000-0 0 9998 2 14129 25.7322 185.0164 6076028 293.5805 15.3787 2.05866556254191 0 OSCAR 11 (UoSAT 2) 1 14781U 84021B 20358.05232243 .00000196 00000-0 30049-4 0 9991 2 14781 97.5895 0.6327 0007220 308.1391 51.9172 14.83228889980780 0 JAS 1 (FUJI 1) 1 16909U 86061B 20357.50701464 -.00000094 00000-0 22190-4 0 9992 2 16909 50.0114 190.3444 0011390 106.3386 277.5968 12.44471134562721 0 COSMOS 1861 1 18129U 87054A 20357.47247269 .00000024 00000-0 93864-5 0 9994 2 18129 82.9256 5.1889 0013018 117.5012 357.7586 13.73036882678694 0 OSCAR 14 (UOSAT 3) 1 20437U 90005B 20357.50959549 .00000012 00000-0 21470-4 0 9994 2 20437 98.8352 326.9476 0010829 11.9457 101.3207 14.32361803614823 0 OSCAR 15 (UOSAT 4) 1 20438U 90005C 20357.49605167 .00000005 00000-0 19468-4 0 9993 2 20438 98.8891 336.3390 0010953 79.0319 31.9121 14.31068274613739 0 OSCAR 16 (PACSAT) 1 20439U 90005D 20357.46420487 .00000019 00000-0 23803-4 0 9994 2 20439 98.7697 314.3065 0010595 347.9632 123.9199 14.32809890615057 0 OSCAR 17 (DOVE) 1 20440U 90005E 20357.44823808 .00000045 00000-0 32820-4 0 9996 2 20440 98.7431 310.7077 0010240 327.2580 142.9277 14.33223199615363 0 OSCAR 18 (WEBERSAT) 1 20441U 90005F 20357.44754588 .00000032 00000-0 28243-4 0 9995 2 20441 98.7424 309.3388 0011066 339.0092 133.2936 14.32856540615165 0 OSCAR 19 (LUSAT) 1 20442U 90005G 20357.41234425 .00000025 00000-0 25528-4 0 9991 2 20442 98.7179 305.5097 0011164 326.7018 33.3462 14.32971186615470 0 JAS 1B (FUJI 2) 1 20480U 90013C 20357.47657650 .00000005 00000-0 86406-4 0 9997 2 20480 99.0726 264.7548 0540370 2.0224 358.2895 12.83428844446428 0 INFORMATOR 1 1 21087U 91006A 20357.51154323 .00000029 00000-0 14163-4 0 9995 2 21087 82.9421 169.5063 0036321 67.2825 345.3468 13.75289036500250 0 COSMOS 2123 1 21089U 91007A 20358.16196081 .00000001 00000-0 -14802-4 0 9998 2 21089 82.9225 23.8329 0030385 125.5070 295.3524 13.74678549499158 0 OSCAR 22 (UoSAT 5) 1 21575U 91050B 20357.69316185 .00000012 00000-0 17733-4 0 9999 2 21575 98.6083 50.1829 0008406 73.2626 286.9485 14.40939810546258 0 OSCAR 23 (KITSAT 1) 1 22077U 92052B 20357.49763994 -.00000076 00000-0 -56028-4 0 9994 2 22077 66.0823 156.3710 0007010 204.1920 220.6332 12.86536397332189 0 ARASENE 1 22654U 93031B 20357.77085528 -.00000109 00000-0 00000+0 0 9994 2 22654 1.6594 106.8348 2912331 197.2830 44.7258 1.42204665138920 0 EYESAT A 1 22825U 93061C 20357.29888319 -.00000002 00000-0 17183-4 0 9990 2 22825 98.9246 4.4970 0008305 183.5210 176.5915 14.30101390420663 0 ITAMSAT 1 22826U 93061D 20357.31112438 .00000008 00000-0 21006-4 0 9990 2 22826 98.9188 4.4359 0009077 171.6896 188.4438 14.30438789420909 0 KITSAT B 1 22828U 93061F 20357.44735132 .00000020 00000-0 25265-4 0 9993 2 22828 98.9160 2.9751 0010570 139.0183 221.1795 14.30761405389344 0 POSAT 1 1 22829U 93061G 20357.51316233 .00000015 00000-0 23405-4 0 9997 2 22829 98.9052 6.2384 0010578 128.2929 25.2369 14.31073935421544 0 RADIO ROSTO 1 23439U 94085A 20357.58884907 -.00000037 00000-0 15882-3 0 9991 2 23439 64.8167 301.9995 0155059 7.0417 353.2636 11.27569758 70393 0 JAS 2 1 24278U 96046B 20357.79757799 -.00000022 00000-0 16920-4 0 9992 2 24278 98.5873 83.0328 0349427 247.1240 109.2658 13.53101438202608 0 TMSAT 1 25396U 98043C 20357.70011326 .00000028 00000-0 31352-4 0 9994 2 25396 98.7286 297.9716 0002549 169.0364 191.0871 14.24568037167053 0 TECHSAT 1B 1 25397U 98043D 20357.79474604 -.00000001 00000-0 19094-4 0 9997 2 25397 98.7511 298.0341 0000690 175.1981 184.9204 14.23697715166571 0 SEDSAT 1 1 25509U 98061B 20358.15819970 .00000078 00000-0 40162-5 0 9996 2 25509 31.4327 335.2211 0346237 116.8119 246.8346 14.30442417158256 0 PAN SAT 1 25520U 98064B 20357.04631332 .00000939 00000-0 24118-4 0 9991 2 25520 28.4359 230.9243 0004812 213.6558 146.3732 15.29624969230683 0 ISS (ZARYA) 1 25544U 98067A 20358.22894200 .00001982 00000-0 43799-4 0 9991 2 25544 51.6447 133.0898 0001494 153.5756 270.4426 15.49217979261324 0 ORSTED 1 25635U 99008B 20358.19107245 .00000143 00000-0 40870-4 0 9995 2 25635 96.4523 338.0128 0140271 107.9860 253.6683 14.48249138152200 0 SUNSAT 1 25636U 99008C 20357.45644032 .00000027 00000-0 14975-4 0 9992 2 25636 96.4684 316.0458 0144638 207.8406 151.4997 14.44737092149934 0 OSCAR 36 (UOSAT 12) 1 25693U 99021A 20358.07495949 -.00000038 00000-0 14004-4 0 9996 2 25693 64.5554 125.0395 0034944 310.6442 49.1626 14.80913451170423 0 KITSAT 3 1 25756U 99029A 20357.81737759 .00000028 00000-0 18097-4 0 9997 2 25756 98.5044 302.8929 0012554 261.5157 98.4616 14.53815815144132 0 TUBSAT 1 25757U 99029B 20357.84233808 -.00000011 00000-0 88721-5 0 9992 2 25757 98.4397 285.8948 0013844 337.6047 22.4541 14.51432381142818 0 IRS P4 (OCEANSAT 1) 1 25758U 99029C 20357.38022936 .00000007 00000-0 11874-4 0 9998 2 25758 98.0028 44.3792 0001870 247.7911 112.3087 14.52565001143168 0 TIUNGSAT 1 1 26548U 00057D 20357.60291091 .00000168 00000-0 33874-4 0 9996 2 26548 64.5515 307.7765 0032476 224.9068 134.9414 14.89532553 97378 0 AMSAT OSCAR 40 1 26609U 00072B 20356.65998544 -.00000147 00000-0 00000-0 0 9991 2 26609 9.1855 350.9070 7935523 208.5428 63.4039 1.25586601 92358 0 PCSAT 1 26931U 01043C 20357.44265285 -.00000031 00000-0 20043-4 0 9990 2 26931 67.0518 17.2596 0007356 273.3478 86.6782 14.30599866 3927 0 SAPPHIRE 1 26932U 01043D 20357.48243395 -.00000043 00000-0 15402-4 0 9999 2 26932 67.0566 21.4243 0007852 286.7386 73.2853 14.30345327 3948 0 RUBIN 2 1 27605U 02058A 20357.46968216 .00000010 00000-0 21970-4 0 9998 2 27605 64.5546 144.8758 0030769 102.9541 257.5000 14.75136812968848 0 SAUDISAT 1C 1 27607U 02058C 20357.15799147 .00000076 00000-0 31356-4 0 9992 2 27607 64.5539 160.4688 0029806 102.4892 257.9548 14.75693719968410 0 CUTE-1 1 27844U 03031E 20357.47914787 .00000060 00000-0 46665-4 0 9993 2 27844 98.6818 2.3726 0009087 227.1582 132.8833 14.22277153906825 0 CUBESAT XI 4 1 27848U 03031J 20357.49032877 .00000046 00000-0 40879-4 0 9995 2 27848 98.6879 2.9512 0008832 241.1069 118.9223 14.21858739906662 0 MOZHAYETS 4 1 27939U 03042A 20358.12970951 .00000126 00000-0 31243-4 0 9997 2 27939 98.1158 130.7572 0014240 115.7161 244.5502 14.66925107921670 0 AMSAT ECHO 1 28375U 04025K 20357.40206470 .00000053 00000-0 28969-4 0 9992 2 28375 98.4486 285.8978 0082837 15.9700 344.4072 14.41985156866821 0 HAMSAT 1 28650U 05017B 20357.48985749 .00000458 00000-0 53805-4 0 9997 2 28650 97.8278 317.9127 0022516 202.4244 157.5991 14.89477099847226 0 CUBESAT XI 5 1 28895U 05043F 20357.32488337 .00000193 00000-0 45927-4 0 9993 2 28895 98.0341 128.7262 0017690 51.6940 308.5850 14.63844248808093 0 CUTE-1.7+APD II 1 32785U 08021C 20358.09196190 .00000446 00000-0 53454-4 0 9998 2 32785 97.5920 338.0112 0011858 223.2930 136.7357 14.88594343686002 0 COMPASS 1 1 32787U 08021E 20357.78015796 .00000694 00000-0 70286-4 0 9994 2 32787 97.5179 350.1299 0012856 154.8087 205.3764 14.93883225687206 0 DELFI C3 1 32789U 08021G 20357.72105795 .00003110 00000-0 20409-3 0 9996 2 32789 97.3981 33.7666 0012635 36.4730 323.7357 15.08305022690280 0 SEEDS 1 32791U 08021J 20357.96584989 .00000585 00000-0 64148-4 0 9993 2 32791 97.5553 343.9493 0012865 187.7891 172.3130 14.91222214686551 0 YUBELEINY 1 32953U 08025A 20358.13052684 .00000028 00000-0 12906-3 0 9995 2 32953 82.5016 160.5895 0019198 3.6546 356.4672 12.43099096571078 0 PRISM (HITOMI) 1 33493U 09002B 20357.79344938 .00001006 00000-0 92050-4 0 9994 2 33493 98.1658 306.1224 0015471 148.3955 211.8198 14.97329437647895 0 STARS (KUKAI) 1 33498U 09002G 20358.12724783 .00000337 00000-0 52750-4 0 9996 2 33498 98.2365 228.1371 0010588 186.4809 173.6267 14.79245934641814 0 KKS-1 (KISEKI) 1 33499U 09002H 20358.16995233 .00000181 00000-0 34467-4 0 9993 2 33499 98.2909 217.9363 0007950 239.9944 120.0476 14.75597786640840 0 SWISSCUBE 1 35932U 09051B 20357.45840143 .00000181 00000-0 51843-4 0 9998 2 35932 98.6068 185.8189 0006517 271.2375 88.8075 14.56466574597192 0 BEESAT 1 35933U 09051C 20357.50024064 .00000156 00000-0 46172-4 0 9992 2 35933 98.6047 187.7220 0004738 287.2776 72.7902 14.56533167597275 0 UWE-2 1 35934U 09051D 20357.50398449 .00000114 00000-0 36978-4 0 9991 2 35934 98.6111 183.4045 0005455 293.3944 66.6679 14.55989997597120 0 ITUPSAT 1 1 35935U 09051E 20357.46817119 .00000136 00000-0 42449-4 0 9991 2 35935 98.6152 187.8598 0007060 286.2522 73.7897 14.55672131597023 0 XIWANG-1 (HOPE-1) 1 36122U 09072B 20357.51600052 -.00000036 00000-0 16330-4 0 9995 2 36122 100.1121 339.6843 0007866 146.3356 213.8259 13.16358172529613 0 FAST 1 (USA 222) 1 37227U 10062F 20358.13592970 .00000057 00000-0 15217-4 0 9996 2 37227 71.9691 267.0528 0018371 269.6168 90.2890 14.79699844 69312 0 JUGNU 1 37839U 11058B 20357.32851872 .00000289 00000-0 12216-4 0 9993 2 37839 19.9599 223.4035 0018854 299.4871 216.8465 14.12698232475386 0 SRMSAT 1 37841U 11058D 20358.16723163 .00000313 00000-0 26847-4 0 9993 2 37841 19.9723 286.5506 0012019 156.7254 338.4475 14.10681214474930 0 AUBIESAT-1 1 37854U 11061E 20357.45666748 .00003585 00000-0 18367-3 0 9998 2 37854 101.7131 185.9944 0156433 222.5323 136.3687 15.07929014499806 0 M-CUBED/EXP-1 PRIME 1 37855U 11061F 20357.45744086 .00003949 00000-0 19811-3 0 9990 2 37855 101.7265 183.0571 0168968 236.8122 121.6789 15.06950928499516